Find Echostar VIII

NORAD ID: 27501 Int'l Des: 2002-039 Owner: ECHO Country: US operational
HEOCIRCULAR

Live-Position

3D-Globus wird geladen...

Über Echostar VIII

Beschreibung wird geladen...

Nächste Überflüge

Passes for default location (London). Set your location on the main map for personalized predictions.

Höhenverlauf

Loading altitude history...

Zweizeiliger Elementsatz

1 27501U 02039A 26105.99142227 -.00000012 00000-0 00000-0 0 9993
2 27501 8.6678 62.4756 0008466 29.3485 149.9479 0.98508339 51449
Epoch: 15. Apr. 2026 • Age: 15 hours

Aktueller Status

Höhe 36252.7 km
Geschwindigkeit 3.06 km/s
Subsatellitenpunkt 6.16°N, 36.36°E
Startdatum 22. Aug. 2002
Alter 23.6 years
Typ other

Technische Details

Klassifizierung Payload
Masse 4685.00 kg
Trockenmasse 2000.00 kg
Gesamtmasse 4685.00 kg
Länge 5.00 m
Durchmesser 2.80 m
Spannweite 31.00 m
Form Box + 2 Pan
Hersteller LOR
Bus-Typ FS-1300
Phasenstatus In Orbit
Besitzer/Staat ECHO/US

Most Searched